Regional Weather Roundup
Issued by NWS Midland/Odessa, TX

Skip options and go directly to product.
Home | Oldest Version | Previous Version | Current Version | All | Text Only | Save Text | Print | Product List | Glossary On

Skip product version selection by date and time.   
157
ASUS44 KMAF 221210
RWRMAF
MIDLAND AREA WEATHER ROUNDUP
NATIONAL WEATHER SERVICE MIDLAND TX
700 AM CDT WED OCT 22 2014

...IN SOUTHWEST TEXAS AND SOUTHEAST NEW MEXICO...

CITY           SKY/WX    TMP DP  RH WIND       PRES   REMARKS
ALPINE         MOCLDY    59  57  92 S3        30.18R
ANDREWS        CLOUDY    62  58  89 S3        30.10S
ARTESIA        NOT AVBL
BIG SPRING     CLOUDY    65  56  73 SE8       30.11S
CARLSBAD       PTCLDY    60  58  92 SE5       30.07S FOG
DRYDEN           N/A     65  64  97 E3        30.05R
FORT STOCKTON  CLOUDY    61  60  97 SE7       30.08R
GUAD PASS      CLOUDY    56  53  90 SW8       30.17R
HOBBS          CLOUDY    59  59 100 S3        30.12
MARFA          CLOUDY    57  57 100 SE3       30.16R
MIDLAND AIRPK  MOCLDY    66  60  81 SE9       30.10R
MIDLAND INTL   CLOUDY    65  59  81 S12       30.09R
ODESSA         CLOUDY    63  59  87 S6        30.10R
PECOS          CLOUDY    60  58  94 CALM      30.07R
PRESIDIO       CLOUDY    65  61  86 E3        30.05R
SEMINOLE       PTCLDY    60  59  97 CALM      30.11R FOG
SNYDER         RAIN      61  55  81 SE5       30.11R
WINK           CLOUDY    64  61  90 SE9       30.06R
$$
...OTHER STATIONS IN TEXAS...

CITY           SKY/WX    TMP DP  RH WIND       PRES   REMARKS
ABILENE        CLOUDY    64  52  64 S5        30.10R
AMARILLO       CLOUDY    60  52  74 S10G18    30.10R
AUSTIN         CLOUDY    59  57  93 CALM      30.07R
BROWNSVILLE    HVY RAIN  73  72  94 SE13      29.96R FOG
CORPUS CHRISTI MOCLDY    67  65  93 N8        30.00R
DALLAS FTW     CLEAR     62  59  90 E5        30.10R
DEL RIO        CLOUDY    68  59  73 E6        30.03R
EL PASO        MOCLDY    60  55  83 N7        30.08R
HOUSTON INT    PTCLDY    63  61  93 CALM      30.06R
LUBBOCK        RAIN      60  58  92 S5        30.11S FOG
SAN ANGELO     LGT RAIN  63  54  72 CALM      30.09R
SAN ANTONIO    MOCLDY    65  52  62 NE3       30.06S
WACO           PTCLDY    59  56  89 N3        30.09R
WICHITA FALLS  NOT AVBL
$$
...OTHER LOCATIONS IN NEW MEXICO...

CITY           SKY/WX    TMP DP  RH WIND       PRES   REMARKS
ALAMAGORDO     NOT AVBL
ALBUQUERQUE    PTCLDY    54  47  77 SE6       30.14R
CANNON AFB     NOT AVBL
CLOVIS         CLOUDY    55  54  94 S5        30.14S
HOLLOMAN AFB   PTCLDY    50  49  95 NE6       30.10R
ROSWELL        FOG       59  58  96 S3        30.09R VSB 1/2
RUIDOSO        CLEAR     46  45  93 W7        30.21S
SANTA FE       CLOUDY    48  46  93 S5        30.17R
TRUTH OR CONSE CLEAR     51  48  89 NW7       30.12R
TUCUMCARI      MOCLDY    60  53  77 SW5       30.08S
$$

USA.gov is the U.S. government's official web portal to all federal, state and local government web resources and services.